Flag for Chile Weather past 2 weeks in Iquique, Chile

Now
70 °F

Sunny.


Feels Like: 70 °F
Forecast: 66 / 73 °F
Wind: 15 mph from Southwest

Location: Iquique / Diego Arac


UV Index: 7 (High)

Visibility: 10 mi


Pressure: 29.95 "Hg

Humidity: 53%

Dew point: 52 °F

Location of IquiqueLocation

Historic Weather in Iquique

°F

Iquique temperature yesterday

Maximum temperature yesterday: 70 °F (at 1:00 PM)
Minimum temperature yesterday: 63 °F (at 3:00 AM)
Average temperature yesterday: 66 °F

Past Weeks' High & Low Weather Summary

 TemperatureHumidityPressure
High72 °F (Apr 10, 4:00 PM)83% (Apr 8, 9:00 PM)30.04 "Hg (Apr 8, 9:00 PM)
Low57 °F (Apr 12, 6:00 AM)50% (Apr 10, 4:00 PM)29.83 "Hg (Apr 14, 5:00 PM)
Average65 °F66%29.95 "Hg
* Reported Apr 8 2:00 PM — Apr 23 2:00 PM, Iquique, Weather by CustomWeather, © 2014

Note: Actual official high and low records may vary slightly from our data, if they occured in-between our weather recording intervals... More about our weather records

Advertising

Historic Weather Conditions — Data for Previous 24 hours

 ConditionsComfort  
Time TempWeatherWind HumidityBarometerVisibility
2:00 PM
Apr 23
70 °FSunny.13 mph57%29.98 "Hg10 mi
1:00 PM70 °FSunny.13 mph53%29.98 "Hg10 mi
12:00 PM70 °FSunny.12 mph53%30.01 "Hg10 mi
11:00 AM70 °FSunny.9 mph53%30.01 "Hg10 mi
10:00 AM68 °FSunny.6 mph56%29.98 "Hg10 mi
9:00 AM63 °FSunny.7 mph68%29.98 "Hg10 mi
8:00 AM63 °FSunny.6 mph68%29.95 "Hg10 mi
7:00 AM64 °FPassing clouds.6 mph64%29.95 "HgN/A
6:00 AM64 °FClear.8 mph64%29.92 "Hg10 mi
5:00 AM64 °FClear.6 mph64%29.95 "Hg10 mi
4:00 AM64 °FClear.7 mph64%29.95 "Hg10 mi
3:00 AM66 °FClear.8 mph64%29.95 "Hg10 mi
2:00 AM64 °FPassing clouds.10 mph64%29.98 "HgN/A
1:00 AM64 °FPassing clouds.8 mph64%29.98 "HgN/A
12:00 AM66 °FPassing clouds.6 mph60%29.98 "HgN/A
11:00 PM
Apr 22
68 °FOvercast.6 mph60%29.98 "HgN/A
10:00 PM66 °FPassing clouds.6 mph64%29.98 "HgN/A
9:00 PM66 °FPassing clouds.6 mph68%29.95 "HgN/A
8:00 PM66 °FPassing clouds.8 mph64%29.92 "HgN/A
7:00 PM68 °FClear.9 mph60%29.92 "Hg10 mi
6:00 PM68 °FSunny.9 mph60%29.89 "Hg10 mi
5:00 PM68 °FSunny.13 mph60%29.89 "Hg10 mi
4:00 PM68 °FSunny.12 mph56%29.89 "Hg10 mi
3:00 PM70 °FPassing clouds.9 mph57%29.92 "HgN/A
Weather by CustomWeather, © 2014

See weather overview